Location: Scenic Heights
(38.0166°N, 120.2566°W)
Time: 15:42:44
(UTC+00:00)

Cosmos 1125 Rocket - Pass Details

Date: 03 August 2024
Orbit: 756 x 776 km, 74.0° (Epoch: 09 September)

Event Time Altitude Azimuth Distance (km) Brightness Sun altitude
Rises 12:27:58 0° 335° (NNW) 3,229 6.8 -7.6°
Reaches altitude 10° 12:30:25 10° 329° (NNW) 2,296 6.0 -7.2°
Maximum altitude 12:35:23 47° 257° (WSW) 1,001 3.7 -6.3°
Drops below altitude 10° 12:40:18 10° 185° (S) 2,274 5.7 -5.5°
Sets 12:42:43 0° 179° (S) 3,194 6.4 -5.1°
